SCP
0 0 0 0 0 0 0 0 0 0 0 0 0 0 0 0 0 0 0 0 0 0 0 0 0 0 0 0 0 0 0 0 0 0 0 0 0 0 0 0 0 0 0
0 0 0 0 0 0 0 0 0 0 0 0 0 0 0 0 0 0 0 0 0 0 0 0 0 0 0 0 0 0 0 0 0 0 0 0 0 0 0 0 0 0 0
0 0 0 0 0 0 0 0 0 0 0 0 0 0 0 0 0 0 0 0 0 0 0 0 0 0 0 0 0 0 0 0 0 0 0 0 0 0 0 0 0 0 0
0 0 0 0 0 0 0 0 0 0 0 0 0 0 0 0 0 0 0 0 0 0 0 0 0 0 0 0 0 0 0 0 0 0 0 0 0 0 0 0 0 0 0
0 0 0 0 0 0 0 0 0 0 0 0 0 0 0 0 0 0 0 0 0 0 0 0 0 0 0 0 0 0 0 0 0 0 0 0 0 0 0 0 0 0 0
0 0 0 0 0 0 0 0 0 0 0 0 0 0 0 0 0 0 0 0 0 0 0 0 0 0 0 0 0 0 0 0 0 0 0 0 0 0 0 0 0 0 0
0 0 0 0 0 0 0 0 0 0 0 0 0 0 0 0 0 0 0 0 0 0 0 0 0 0 0 0 0 0 0 0 0 0 0 0 0 0 0 0 0 0 0
0 0 0 0 0 0 0 0 0 0 0 0 0 0 0 0 0 0 0 0 0 0 0 0 0 0 0 0 0 0 0 0 0 0 0 0 0 0 0 0 0 0 0
0 0 0 0 0 0 0 0 0 0 0 0 0 0 0 0 0 0 0 0 0 0 0 0 0 0 0 0 0 0 0 0 0 0 0 0 0 0 0 0 0 0 0
0 0 0 0 0 0 0 0 0 0 0 0 0 0 0 0 0 0 0 0 0 0 0 0 0 0 0 0 0 0 0 0 0 0 0 0 0 0 0 0 0 0 0
0 0 0 0 0 0 0 0 0 0 0 0 0 0 0 0 0 0 0 0 0 0 0 0 0 0 0 0 0 0 0 0 0 0 0 0 0 0 0 0 0 0 0
0 0 0 0 0 0 0 0 0 0 0 0 0 0 0 0 0 0 0 0 0 0 0 0 0 0 0 0 0 0 0 0 0 0 0 0 0 0 0 0 0 0 0
0 0 0 0 0 0 0 0 0 0 0 0 0 0 0 0 0 0 0 0 0 0 0 0 0 0 0 0 0 0 0 0 0 0 0 0 0 0 0 0 0 0 0
0 0 0 0 0 0 0 0 0 0 0 0 0 0 0 0 0 0 0 0 0 0 0 0 0 0 0 0 0 0 0 0 0 0 0 0 0 0 0 0 0 0 0
0 0 0 0 0 0 0 0 0 0 0 0 0 0 0 0 0 0 0 0 0 0 0 0 0 0 0 0 0 0 0 0 0 0 0 0 0 0 0 0 0 0 0
0 0 0 0 0 0 0 0 0 0 0 0 0 0 0 0 0 0 0 0 0 0 0 0 0 0 0 0 0 0 0 0 0 0 0 0 0 0 0 0 0 0 0
0 0 0 0 0 0 0 0 0 0 0 0 0 0 0 0 0 0 0 0 0 0 0 0 0 0 0 0 0 0 0 0 0 0 0 0 0 0 0 0 0 0 0
0 0 0 0 0 0 0 0 0 0 0 0 0 0 0 0 0 0 0 0 0 0 0 0 0 0 0 0 0 0 0 0 0 0 0 0 0 0 0 0 0 0 0
0 0 0 0 0 0 0 0 0 0 0 0 0 0 0 0 0 0 0 0 0 0 0 0 0 0 0 0 0 0 0 0 0 0 0 0 0 0 0 0 0 0 0
0 0 0 0 0 0 0 0 0 0 0 0 0 0 0 0 0 0 0 0 0 0 0 0 0 0 0 0 0 0 0 0 0 0 0 0 0 0 0 0 0 0 0
0 0 0 0 0 0 0 0 0 0 0 0 0 0 0 0 0 0 0 0 0 0 0 0 0 0 0 0 0 0 0 0 0 0 0 0 0 0 0 0 0 0 0
0 0 0 0 0 0 0 0 0 0 0 0 0 0 0 0 0 0 0 0 0 0 0 0 0 0 0 0 0 0 0 0 0 0 0 0 0 0 0 0 0 0 0
0 0 0 0 0 0 0 0 0 0 0 0 0 0 0 0 0 0 0 0 0 0 0 0 0 0 0 0 0 0 0 0 0 0 0 0 0 0 0 0 0 0 0
0 0 0 0 0 0 0 0 0 0 0 0 0 0 0 0 0 0 0 0 0 0 0 0 0 0 0 0 0 0 0 0 0 0 0 0 0 0 0 0 0 0 0
0 0 0 0 0 0 0 0 0 0 0 0 0 0 0 0 0 0 0 0 0 0 0 0 0 0 0 0 0 0 0 0 0 0 0 0 0 0 0 0 0 0 0
0 0 0 0 0 0 0 0 0 0 0 0 0 0 0 0 0 0 0 0 0 0 0 0 0 0 0 0 0 0 0 0 0 0 0 0 0 0 0 0 0 0 0
Wind_Speed
7 7 6 6 6 6 5 5 4 4 5 4 4 4 5 5 4 4 2 2 2 3 3 3 3 2 2 2 1 1 2 1 3 4 3 3 3 4 4 4 4 5 7
7 7 7 6 6 6 5 5 5 5 5 5 5 4 4 4 4 4 3 3 2 2 3 3 3 3 3 2 2 2 2 1 2 4 4 3 3 3 3 3 3 4 5
7 8 7 7 7 7 6 5 5 5 5 5 5 5 4 4 4 4 4 3 3 2 3 3 3 3 3 3 2 2 2 3 2 3 3 2 2 2 2 3 3 3 3
8 8 8 7 7 7 6 6 6 6 6 6 5 5 5 5 5 5 4 4 4 3 3 3 2 2 3 3 3 3 3 3 3 2 3 2 2 2 1 1 2 2 2
8 8 7 6 6 6 6 6 6 6 6 6 5 5 4 4 3 4 5 4 4 4 4 4 4 5 6 3 2 2 3 2 2 2 2 2 2 1 1 0 1 1 2
8 8 7 7 7 7 6 7 7 6 6 6 6 5 4 3 4 2 2 4 4 4 4 4 5 5 5 5 5 5 3 1 2 2 2 1 1 1 1 0 0 0 1
9 8 7 7 7 7 7 7 7 7 6 6 6 5 5 5 6 5 3 3 3 3 4 4 3 4 4 5 7 6 4 3 3 1 1 1 1 1 0 0 0 1 2
9 8 8 7 7 7 7 7 7 7 6 6 6 6 5 5 7 6 5 5 3 3 3 3 4 4 3 3 4 4 3 3 1 0 1 2 3 2 1 1 1 0 1
8 8 8 8 8 8 7 7 6 6 6 6 6 6 6 6 8 7 6 4 4 4 3 3 3 4 5 3 4 4 4 4 5 5 6 6 7 6 3 0 0 1 0
8 8 8 8 8 8 8 7 6 6 5 5 5 6 6 6 8 8 7 4 4 4 3 3 2 2 6 4 4 4 4 4 4 5 4 4 3 4 2 1 1 1 1
7 7 7 8 8 8 7 6 6 6 6 6 6 5 5 5 7 8 6 5 4 4 4 3 4 6 5 3 2 2 2 2 3 3 3 3 2 2 2 2 2 2 2
7 7 7 7 7 7 7 7 7 7 6 6 5 5 4 4 4 6 6 5 3 4 3 3 5 9 7 5 3 4 4 2 2 2 2 2 2 2 2 2 2 2 2
8 8 7 7 7 7 8 8 7 7 6 6 5 5 4 4 4 6 7 6 4 3 2 5 6 8 7 5 5 5 4 3 2 2 2 2 2 2 2 2 2 2 2
8 7 7 7 7 7 6 6 6 6 6 6 6 6 5 4 4 5 6 6 6 5 5 6 7 5 3 4 5 4 3 2 2 2 2 2 2 2 1 1 1 1 1
7 7 7 7 7 7 6 5 6 6 5 6 5 5 6 6 5 6 6 6 6 6 6 5 5 5 4 4 3 3 3 3 3 2 2 2 2 2 1 1 1 1 1
7 6 6 6 6 6 6 5 2 1 3 4 3 4 4 4 7 8 7 6 7 9 7 5 5 5 5 4 4 4 3 3 3 2 2 2 2 2 1 1 1 1 1
7 7 6 6 6 6 6 6 5 3 3 3 4 4 4 7 8 8 8 8 8 9 5 5 5 5 4 4 4 4 3 3 3 3 2 2 2 2 2 2 1 1 1
7 6 6 6 6 6 6 6 5 6 5 3 3 5 6 8 8 9 10 9 6 5 4 4 4 4 4 4 4 4 3 3 3 3 3 2 2 2 2 1 1 1 1
6 5 6 6 6 6 6 6 5 6 5 4 4 4 6 7 7 8 9 6 5 5 5 4 4 4 4 4 3 3 3 3 3 3 3 2 2 2 2 1 1 1 2
6 6 6 6 6 6 6 6 6 6 5 5 5 5 6 6 5 6 5 4 4 4 4 4 4 4 4 3 3 3 3 3 3 3 3 2 2 2 2 2 1 1 1
5 6 7 6 6 6 6 6 6 6 6 5 5 6 8 6 5 6 5 5 4 4 4 4 4 4 4 3 3 4 4 3 3 3 3 3 3 2 2 1 1 1 1
5 6 6 6 6 6 6 6 6 6 6 6 5 6 7 5 5 5 5 4 4 4 4 4 3 3 4 4 4 4 4 3 3 3 3 2 2 2 2 2 2 1 1
5 6 6 6 5 6 6 6 6 6 6 6 6 6 6 5 4 4 4 4 4 3 3 3 3 3 3 3 3 3 3 3 3 4 3 3 3 2 2 2 2 2 2
5 6 6 6 6 6 6 6 6 6 6 6 6 6 5 5 5 5 4 4 4 4 4 3 4 5 5 4 3 2 2 2 3 3 4 3 3 2 2 2 2 2 2
5 6 6 6 6 6 6 6 6 6 6 6 5 5 5 5 5 5 4 4 5 4 5 4 4 4 6 6 4 4 4 3 2 2 3 3 3 3 3 2 2 2 1
5 6 5 5 5 6 6 6 6 6 6 5 5 5 5 5 5 5 5 5 5 5 4 4 5 5 6 5 5 6 6 6 5 3 3 3 3 3 3 2 2 2 2
Wind_Direction
184 182 184 184 179 172 173 175 181 172 173 176 176 170 166 163 157 150 155 150 160 140 137 123 108 95 111 104 98 86 68 68 107 106 96 90 83 70 77 76 76 75 77
182 183 189 179 181 177 173 177 185 177 174 178 172 172 165 160 154 149 151 157 151 141 132 125 122 124 115 101 96 93 85 77 116 114 111 95 78 72 65 71 79 76 77
183 185 186 180 185 184 178 178 184 175 176 179 174 172 166 162 157 155 155 150 139 130 123 123 129 135 133 114 108 100 97 97 98 119 108 97 91 81 84 80 86 79 80
182 186 184 183 187 188 180 177 180 177 180 179 176 173 167 163 162 159 154 148 137 127 124 119 118 124 124 123 122 114 112 112 109 117 117 117 102 84 98 93 97 97 71
183 185 183 183 180 181 175 175 180 178 179 177 177 175 166 165 163 166 160 152 147 137 131 122 103 78 53 54 68 110 125 131 128 124 117 113 99 85 49 32 85 94 86
183 182 176 181 174 176 176 177 178 176 176 174 179 173 163 154 123 135 188 165 159 151 146 138 129 130 111 97 73 59 48 92 124 132 128 125 99 81 42 331 16 297 93
183 178 175 179 174 176 173 175 175 176 172 173 177 169 166 146 141 156 189 189 171 161 157 147 136 135 155 145 134 134 103 54 17 16 106 80 64 52 348 223 6 359 30
181 177 175 177 173 172 174 175 177 176 173 176 174 167 164 151 148 159 176 190 171 166 165 160 162 160 155 158 145 138 124 112 105 121 72 59 38 28 356 338 351 73 95
181 178 177 176 174 174 176 178 176 175 175 176 171 174 177 165 158 167 184 176 172 167 162 163 173 167 127 163 169 154 142 127 96 74 58 68 62 44 8 325 211 228 170
183 181 177 176 174 176 177 176 172 173 174 174 171 180 183 177 157 169 200 186 182 171 160 153 130 150 139 181 193 178 170 154 149 142 134 135 121 102 62 354 340 315 331
177 176 174 178 180 176 170 168 168 167 170 176 172 175 182 178 159 171 201 210 188 179 171 166 145 142 146 164 214 183 135 150 154 150 140 128 118 100 95 69 28 351 346
170 173 174 175 173 170 167 170 171 165 168 176 179 175 179 172 168 170 184 208 222 186 176 166 141 142 145 149 155 121 126 167 169 164 158 145 131 106 82 72 64 55 29
169 172 173 171 171 171 173 172 172 174 179 183 186 186 185 178 161 159 167 174 193 185 146 108 122 140 145 144 140 147 168 181 175 177 171 149 125 107 101 94 86 77 64
173 173 173 174 172 173 175 177 178 183 188 192 193 191 188 184 179 169 165 161 158 163 155 133 129 131 145 129 146 166 184 171 185 180 161 136 129 132 137 139 149 166 140
177 174 174 176 174 175 176 179 188 191 194 195 195 193 191 197 189 178 179 179 178 172 162 163 166 165 168 170 169 164 168 168 173 174 159 155 159 151 138 142 241 239 255
178 176 177 176 175 175 171 162 107 157 156 177 188 199 193 175 155 165 171 160 152 156 165 175 181 183 184 182 180 177 177 181 181 176 172 174 177 180 176 180 214 247 266
186 180 177 177 175 177 175 174 168 137 131 165 178 180 174 155 155 160 157 152 154 161 180 188 188 188 189 188 185 184 183 181 179 179 184 186 188 194 197 200 211 234 259
188 179 179 179 179 180 180 181 179 177 174 174 172 167 161 158 160 158 151 147 157 181 197 194 192 187 186 187 187 186 182 176 179 183 188 191 194 201 205 207 214 247 257
186 182 183 179 179 181 179 177 179 181 176 168 159 151 153 149 147 154 162 177 177 183 190 192 193 189 185 184 183 182 178 177 178 180 187 191 191 194 200 211 214 213 255
184 178 181 179 177 179 177 175 178 180 177 174 173 163 154 158 162 165 182 193 188 188 190 190 189 188 185 180 177 178 179 177 179 186 187 187 189 196 199 210 223 231 245
178 173 177 182 181 179 177 180 181 182 181 179 175 163 166 174 174 176 183 191 194 191 188 186 181 179 181 178 178 181 182 181 181 186 188 183 181 187 194 202 214 228 249
178 176 183 185 180 179 178 179 181 180 179 177 164 156 167 178 175 178 182 187 190 189 185 179 180 178 179 180 180 181 180 180 178 177 175 173 174 180 187 199 209 223 235
182 179 181 180 178 170 177 178 178 179 178 176 169 165 173 181 175 176 177 178 177 173 168 166 167 165 164 166 172 181 180 178 180 177 176 177 182 183 189 195 201 219 238
183 180 178 175 175 177 181 179 179 179 178 176 174 172 173 175 173 172 171 167 164 163 163 163 165 165 164 159 160 167 166 163 169 172 171 168 173 175 177 186 198 208 217
180 177 175 175 174 176 178 179 178 177 177 176 174 171 170 171 170 167 165 162 162 163 164 165 164 167 169 166 162 149 126 125 142 155 159 163 167 173 179 181 193 207 218
176 174 172 171 174 176 176 176 177 176 177 175 174 171 170 170 169 168 167 166 165 163 163 164 162 161 161 161 151 141 137 137 138 152 167 161 167 172 179 183 186 199 207